Temp
85 89 82 84 84 84 84 84 84 84 84 84 84 83 83 84 84 84 84 83 83 84 84 84 84 84 84 84 84 83 83 83 84 83 83 83 83 83 83 84 85 92 83
92 91 82 84 84 84 84 84 84 84 84 84 84 84 83 84 84 84 84 83 84 84 85 84 84 85 84 84 84 83 83 83 84 84 84 84 84 84 83 85 86 87 83
92 93 90 83 84 84 84 84 84 84 84 83 84 84 84 84 84 84 84 84 85 84 85 85 84 84 83 83 84 83 83 83 84 84 85 91 90 84 84 84 83 83 83
89 95 95 81 83 84 83 83 83 84 84 84 84 84 84 84 83 83 84 84 84 84 85 84 85 85 84 84 84 84 83 84 83 85 90 94 93 83 84 83 83 83 83
88 90 89 82 83 83 83 83 83 84 83 83 84 84 84 84 84 84 83 84 84 84 84 84 84 84 84 83 83 84 83 83 84 90 92 90 93 85 83 83 83 83 84
89 97 86 83 82 82 82 82 82 83 83 83 84 84 84 84 84 84 84 85 85 85 85 84 84 84 84 84 84 84 83 83 85 94 92 91 92 83 83 84 85 83 83
91 96 92 83 82 83 83 83 83 84 84 84 84 84 85 85 85 85 84 84 84 85 85 84 84 84 84 84 84 83 84 83 92 92 93 91 91 83 83 84 83 83 83
88 96 92 83 83 83 84 83 83 84 84 84 84 84 84 84 84 84 84 85 85 85 84 84 84 84 84 84 84 83 83 86 92 90 92 90 83 83 84 83 83 83 83
90 86 92 93 87 83 83 84 84 84 84 84 84 84 84 84 84 84 84 84 84 85 84 84 84 84 84 84 84 83 83 84 90 92 94 93 81 83 83 83 83 83 83
87 90 88 94 97 92 92 84 84 84 84 84 84 84 84 84 84 84 84 84 84 84 84 84 84 83 83 84 84 82 83 83 91 85 95 90 82 83 83 83 83 83 83
89 88 87 94 95 92 93 89 85 84 84 84 85 84 85 96 93 91 85 82 80 81 82 82 83 83 83 84 84 84 83 86 85 89 86 81 82 83 83 82 83 82 83
91 91 87 91 95 94 94 91 91 92 94 94 94 91 95 94 94 90 85 79 78 77 78 77 79 82 84 96 93 83 84 87 87 92 83 80 82 83 83 83 83 82 82
94 91 88 89 90 94 93 94 95 95 95 94 89 91 94 94 96 93 78 76 75 77 73 74 75 77 85 93 96 96 84 89 87 92 86 80 79 81 82 83 82 82 82
93 90 89 91 90 93 95 93 94 95 94 95 95 90 91 94 95 85 82 83 75 73 73 74 81 87 87 85 90 90 93 92 90 86 81 80 79 80 81 82 82 82 82
92 88 86 93 88 90 88 93 93 94 95 98 95 96 95 94 89 88 84 82 85 81 82 76 83 85 87 89 90 89 91 92 89 89 87 82 81 80 81 83 82 82 82
91 91 91 93 90 91 90 88 91 93 95 95 98 97 92 94 90 88 84 84 84 83 83 86 84 87 89 90 89 89 88 91 90 88 85 82 81 81 80 80 81 82 82
94 93 93 93 95 90 89 89 91 93 97 97 96 94 92 92 93 87 89 83 85 84 84 85 85 82 85 86 86 89 91 91 90 88 89 87 84 80 75 75 77 79 82
95 92 92 95 97 94 93 92 94 95 96 97 96 98 94 92 90 88 86 84 87 86 81 81 88 83 84 87 85 89 91 92 91 89 92 92 90 83 76 75 76 77 81
95 93 88 89 94 95 91 92 93 92 95 96 97 99 93 93 92 87 90 87 89 88 87 85 88 86 86 91 92 93 94 93 91 92 89 87 88 90 86 77 78 77 80
96 94 93 93 91 92 92 90 94 94 95 96 97 99 93 95 92 88 93 89 87 90 87 88 87 90 92 92 94 91 93 94 94 93 93 94 91 88 86 84 85 78 80
96 94 93 93 92 92 92 91 92 92 94 95 97 95 92 94 92 91 94 89 91 90 87 85 88 86 89 90 90 91 91 91 91 93 91 93 92 91 90 90 88 85 80
96 95 93 92 91 91 94 93 94 94 95 95 96 95 93 93 92 91 91 91 90 87 86 86 86 89 90 91 84 88 80 87 92 92 94 93 91 94 92 92 92 88 87
96 95 93 91 91 90 92 92 90 92 91 92 93 95 95 92 92 91 90 91 88 89 88 87 87 87 86 90 88 90 80 85 88 91 90 93 91 93 93 92 92 90 89
98 99 95 93 91 91 89 90 87 90 90 94 95 98 96 92 92 91 90 90 89 93 87 87 89 88 86 88 90 92 89 88 87 82 90 92 92 92 92 93 91 92 91
102 100 99 94 90 91 90 90 90 88 93 94 95 91 91 92 92 93 91 90 89 92 89 88 88 86 90 92 92 91 89 92 90 88 85 88 92 92 94 92 91 91 93
102 101 99 94 89 90 90 89 88 89 89 92 91 93 95 96 95 91 91 90 90 91 89 89 89 88 88 89 92 92 92 87 89 90 87 86 87 91 93 94 92 87 87
MSLP
1017.54 1017.31 1017.91 1017.73 1017.65 1017.58 1017.63 1017.65 1017.61 1017.77 1017.81 1017.86 1017.85 1017.98 1018.14 1018.22 1018.29 1018.33 1018.40 1018.54 1018.50 1018.52 1018.66 1018.62 1018.67 1018.79 1018.90 1019.04 1019.19 1019.20 1019.16 1019.21 1019.34 1019.53 1019.46 1019.59 1019.71 1019.79 1019.86 1019.87 1019.68 1019.89 1020.65
1016.71 1017.10 1017.95 1017.95 1017.97 1017.80 1017.82 1017.98 1018.06 1018.11 1018.21 1018.25 1018.09 1018.25 1018.40 1018.39 1018.45 1018.59 1018.47 1018.73 1018.73 1018.69 1018.74 1018.90 1019.04 1019.00 1019.19 1019.27 1019.41 1019.57 1019.58 1019.58 1019.56 1019.81 1019.89 1019.97 1020.13 1020.21 1020.26 1020.09 1019.79 1020.58 1020.90
1016.59 1017.09 1017.57 1018.03 1018.09 1018.05 1018.09 1018.23 1018.27 1018.39 1018.47 1018.58 1018.46 1018.46 1018.56 1018.71 1018.71 1018.77 1018.64 1018.77 1018.79 1018.87 1018.88 1018.96 1019.12 1019.29 1019.52 1019.62 1019.72 1019.84 1019.93 1019.97 1019.99 1019.83 1019.73 1019.23 1020.10 1020.62 1020.63 1020.62 1020.77 1021.00 1021.28
1017.22 1016.76 1017.16 1018.24 1018.37 1018.32 1018.44 1018.51 1018.57 1018.61 1018.70 1018.81 1018.77 1018.76 1018.68 1018.80 1019.02 1019.02 1018.91 1018.94 1019.01 1019.02 1019.06 1019.23 1019.28 1019.45 1019.63 1019.71 1019.81 1019.97 1020.12 1020.22 1020.16 1019.74 1018.97 1019.02 1020.03 1021.09 1020.93 1021.00 1021.13 1021.28 1021.46
1017.57 1017.53 1017.95 1018.45 1018.53 1018.57 1018.69 1018.81 1018.89 1018.92 1019.00 1019.07 1018.99 1018.91 1018.94 1018.96 1019.06 1019.15 1019.37 1019.29 1019.26 1019.28 1019.30 1019.45 1019.57 1019.66 1019.75 1019.91 1020.01 1020.13 1020.31 1020.44 1020.24 1019.40 1019.26 1019.34 1019.79 1021.23 1021.32 1021.28 1021.43 1021.49 1021.46
1017.31 1016.80 1018.21 1018.64 1018.86 1018.84 1018.98 1018.97 1019.07 1019.28 1019.27 1019.30 1019.30 1019.19 1019.23 1019.26 1019.30 1019.35 1019.54 1019.61 1019.65 1019.66 1019.62 1019.71 1019.79 1019.81 1019.98 1020.01 1020.16 1020.28 1020.37 1020.48 1020.10 1019.39 1019.58 1019.83 1019.93 1021.43 1021.54 1021.38 1021.44 1021.69 1021.83
1017.28 1017.15 1018.06 1018.83 1019.05 1019.05 1019.22 1019.24 1019.37 1019.43 1019.43 1019.42 1019.41 1019.40 1019.50 1019.48 1019.55 1019.71 1019.81 1019.94 1019.95 1020.00 1019.98 1019.96 1020.08 1020.04 1020.11 1020.16 1020.25 1020.39 1020.44 1020.46 1019.81 1019.80 1019.59 1019.65 1020.71 1021.57 1021.78 1021.80 1021.96 1022.08 1022.18
1017.79 1017.01 1018.15 1019.04 1019.12 1019.24 1019.28 1019.46 1019.57 1019.61 1019.53 1019.59 1019.70 1019.62 1019.73 1019.72 1019.75 1019.91 1019.98 1020.05 1020.11 1020.17 1020.23 1020.30 1020.40 1020.35 1020.29 1020.29 1020.27 1020.34 1020.62 1020.41 1019.85 1020.24 1019.86 1019.79 1021.44 1021.76 1021.86 1022.00 1022.09 1022.26 1022.35
1018.07 1018.32 1018.04 1018.18 1019.05 1019.37 1019.48 1019.52 1019.59 1019.60 1019.59 1019.70 1019.82 1019.75 1019.81 1019.85 1019.91 1019.99 1020.06 1020.12 1020.19 1020.29 1020.34 1020.42 1020.53 1020.57 1020.52 1020.48 1020.44 1020.52 1020.63 1020.63 1020.31 1020.15 1020.04 1020.06 1021.73 1021.72 1021.99 1022.05 1022.19 1022.39 1022.55
1018.24 1018.16 1018.56 1017.83 1017.85 1018.36 1018.97 1019.55 1019.62 1019.75 1019.74 1019.77 1019.84 1019.78 1019.88 1019.84 1019.96 1020.00 1020.08 1020.16 1020.42 1020.43 1020.42 1020.56 1020.56 1020.64 1020.74 1020.62 1020.56 1020.72 1020.81 1020.84 1020.35 1020.87 1020.14 1020.86 1021.71 1021.93 1021.95 1022.24 1022.34 1022.48 1022.61
1018.27 1018.64 1018.71 1017.77 1018.02 1018.63 1018.58 1019.29 1019.67 1019.84 1019.87 1019.81 1019.70 1019.79 1019.67 1018.82 1019.14 1019.35 1019.90 1020.25 1020.65 1020.82 1020.78 1020.85 1020.70 1020.70 1020.71 1020.63 1020.62 1020.67 1020.75 1020.58 1021.01 1020.74 1021.26 1021.76 1021.97 1022.11 1022.17 1022.28 1022.45 1022.66 1022.74
1017.23 1017.86 1018.60 1018.14 1017.96 1018.33 1018.64 1019.11 1019.07 1019.15 1018.87 1018.88 1018.95 1019.21 1018.92 1019.01 1019.17 1019.53 1019.92 1020.39 1020.85 1021.02 1021.14 1021.03 1020.90 1020.84 1020.44 1019.53 1019.77 1020.63 1020.61 1020.40 1020.66 1020.59 1021.59 1021.97 1022.03 1022.10 1022.25 1022.40 1022.50 1022.70 1022.81
1016.56 1017.63 1018.41 1018.64 1018.68 1018.46 1018.46 1018.68 1018.60 1018.77 1018.80 1018.91 1019.26 1019.23 1018.99 1018.92 1018.69 1018.82 1019.66 1020.30 1020.36 1020.86 1021.03 1021.15 1021.19 1020.95 1020.32 1019.60 1019.38 1019.41 1020.65 1020.37 1020.66 1020.75 1021.25 1021.90 1022.07 1022.31 1022.35 1022.38 1022.55 1022.64 1022.88
1016.63 1017.63 1018.33 1018.24 1018.65 1018.37 1018.47 1018.78 1018.66 1018.56 1018.70 1018.53 1018.65 1019.10 1018.91 1018.38 1018.40 1019.18 1019.50 1019.63 1020.20 1020.59 1020.74 1021.03 1020.81 1020.03 1020.08 1020.24 1019.90 1019.86 1019.43 1019.66 1020.42 1021.13 1021.56 1021.81 1022.05 1022.25 1022.41 1022.36 1022.60 1022.73 1022.84
1016.79 1017.78 1018.30 1018.01 1018.77 1018.68 1019.07 1018.74 1018.69 1018.63 1018.45 1018.26 1018.47 1018.38 1018.50 1018.25 1018.56 1018.71 1019.10 1019.21 1019.32 1020.04 1020.07 1020.30 1020.07 1019.90 1019.92 1019.96 1019.88 1019.81 1019.62 1019.73 1020.34 1020.37 1020.91 1021.70 1022.02 1022.22 1022.38 1022.41 1022.59 1022.74 1022.83
1016.63 1017.12 1017.53 1017.84 1018.20 1018.56 1018.68 1019.02 1018.81 1018.63 1018.43 1018.38 1018.01 1018.09 1018.53 1018.20 1018.32 1018.41 1018.74 1018.79 1018.94 1019.19 1019.42 1019.32 1019.32 1019.28 1019.18 1019.34 1019.58 1019.74 1019.84 1019.73 1020.03 1020.53 1021.12 1021.59 1021.95 1022.23 1022.41 1022.57 1022.72 1022.82 1022.91
1016.12 1016.79 1017.13 1017.51 1017.64 1018.39 1018.61 1018.78 1018.67 1018.39 1017.98 1017.94 1017.93 1018.09 1018.30 1018.29 1018.01 1018.57 1018.09 1018.59 1018.54 1018.75 1019.12 1019.09 1019.28 1019.74 1019.27 1019.60 1019.71 1019.58 1019.35 1019.44 1019.91 1020.25 1020.51 1021.03 1021.67 1021.95 1022.48 1022.79 1022.67 1022.87 1022.81
1015.79 1016.55 1017.15 1017.29 1017.21 1017.72 1017.87 1018.31 1018.18 1018.00 1017.92 1017.84 1017.72 1017.54 1017.90 1018.07 1018.17 1018.30 1018.43 1018.41 1018.37 1018.60 1019.04 1019.13 1018.69 1019.19 1019.28 1019.25 1019.51 1019.19 1019.00 1019.17 1019.47 1019.91 1019.85 1020.02 1020.51 1021.16 1022.17 1022.51 1022.60 1022.62 1022.71
1015.63 1016.28 1017.13 1017.50 1017.25 1017.29 1017.95 1018.11 1018.13 1018.12 1017.89 1017.77 1017.46 1017.32 1017.72 1017.81 1017.97 1018.25 1017.93 1018.19 1018.15 1018.35 1018.26 1018.65 1018.48 1018.92 1019.04 1018.53 1018.58 1018.78 1018.80 1018.78 1019.22 1019.30 1019.76 1020.27 1020.38 1020.42 1021.31 1022.01 1022.18 1022.32 1022.48
1015.24 1015.94 1016.51 1016.86 1017.30 1017.50 1017.64 1018.11 1017.83 1017.78 1017.66 1017.58 1017.25 1017.16 1017.63 1017.64 1017.98 1018.12 1017.63 1018.04 1018.29 1017.83 1018.20 1018.40 1018.39 1018.42 1018.22 1018.41 1018.39 1018.75 1018.75 1018.52 1018.63 1018.65 1018.78 1019.13 1019.68 1020.14 1020.70 1021.13 1021.40 1021.89 1022.09
1014.78 1015.40 1015.88 1016.41 1016.74 1017.32 1017.43 1017.42 1017.37 1017.25 1017.33 1017.25 1017.02 1017.26 1017.55 1017.47 1017.73 1017.85 1017.39 1017.96 1017.74 1017.93 1018.30 1018.64 1018.61 1018.81 1018.64 1018.82 1018.42 1018.34 1018.42 1018.62 1018.60 1018.52 1018.96 1018.68 1018.95 1019.59 1019.77 1019.98 1020.67 1021.14 1021.64
1014.27 1014.88 1015.53 1016.05 1016.51 1017.02 1017.01 1017.16 1017.04 1017.09 1017.05 1016.98 1016.83 1017.09 1017.35 1017.45 1017.62 1017.76 1017.66 1017.60 1017.77 1018.25 1018.47 1018.61 1018.69 1018.35 1018.39 1018.66 1018.73 1017.93 1018.26 1018.23 1018.08 1018.27 1018.34 1018.62 1018.93 1018.80 1019.26 1019.61 1019.56 1020.26 1020.53
1013.66 1014.25 1014.85 1015.54 1016.00 1016.50 1016.68 1017.03 1017.18 1017.23 1017.26 1017.05 1016.89 1016.76 1016.81 1017.31 1017.47 1017.78 1017.81 1017.63 1017.96 1018.06 1018.24 1018.51 1018.63 1018.49 1018.37 1018.46 1018.63 1017.70 1017.50 1016.96 1017.49 1018.11 1018.41 1018.32 1018.77 1018.58 1018.74 1019.13 1019.40 1019.91 1020.24
1012.64 1013.43 1014.33 1015.06 1015.63 1016.06 1016.45 1016.52 1016.64 1016.46 1016.33 1016.32 1016.46 1016.44 1016.69 1017.14 1017.22 1017.55 1017.70 1017.90 1018.02 1017.61 1018.30 1018.51 1018.54 1018.63 1018.63 1018.02 1018.39 1018.36 1018.40 1018.02 1017.05 1017.31 1017.95 1017.96 1018.38 1018.27 1018.34 1018.70 1019.08 1019.38 1019.68
1011.68 1012.46 1013.27 1014.39 1015.23 1015.50 1015.84 1016.03 1016.31 1016.40 1016.24 1016.45 1016.45 1016.93 1016.91 1016.97 1017.11 1017.11 1017.53 1017.80 1018.00 1017.73 1018.22 1018.48 1018.52 1018.70 1018.49 1017.89 1017.86 1018.02 1018.30 1018.03 1018.20 1017.33 1017.29 1017.81 1018.19 1018.32 1017.91 1018.50 1018.43 1018.67 1019.28
1011.27 1011.96 1012.74 1013.77 1014.76 1015.23 1015.61 1016.06 1016.12 1016.07 1016.32 1016.28 1016.55 1016.38 1016.35 1016.46 1016.79 1017.17 1017.27 1017.50 1017.76 1017.73 1018.18 1018.28 1018.38 1018.66 1018.57 1018.51 1018.14 1018.15 1017.67 1017.84 1017.58 1017.68 1017.23 1017.54 1017.68 1017.86 1018.07 1018.04 1018.28 1018.97 1019.33
Wind_Speed
7 8 1 9 11 13 13 14 14 13 13 11 11 11 11 12 10 11 12 10 11 14 13 14 16 16 15 14 12 14 13 15 14 14 15 15 15 16 15 16 14 18 16
9 8 2 8 10 11 12 13 13 13 12 11 10 11 11 11 11 10 13 12 13 13 15 14 15 15 15 14 12 12 13 14 15 15 16 15 14 14 11 9 18 16 15
8 10 9 8 8 10 11 12 13 13 12 11 11 12 12 11 11 11 13 13 13 13 13 14 14 15 14 13 12 12 11 13 15 12 16 11 14 13 14 16 17 16 15
5 7 11 8 8 10 10 11 12 13 12 11 12 12 13 12 9 11 12 13 12 13 12 13 12 13 12 13 12 12 13 12 9 7 6 13 14 11 14 14 15 15 14
10 7 11 9 9 9 9 10 11 11 12 11 11 12 12 11 10 11 11 12 12 11 12 12 11 11 11 11 11 11 11 11 6 3 8 8 12 12 13 15 15 14 13
6 11 11 7 10 10 9 11 11 11 12 10 10 12 11 11 10 10 10 10 10 10 10 10 10 10 9 8 7 8 10 8 7 8 10 5 14 13 11 10 12 13 14
8 10 11 6 10 10 10 11 10 10 11 9 8 10 9 10 10 9 9 9 9 9 9 8 7 8 7 6 4 6 8 4 7 4 8 7 13 10 11 12 11 12 12
5 5 11 8 5 10 10 10 10 8 9 8 7 9 7 8 8 7 7 8 8 8 8 8 7 6 6 6 5 7 8 4 5 6 5 9 12 9 11 10 11 11 10
9 5 6 11 11 7 8 8 8 8 7 6 5 4 6 6 6 5 4 4 6 5 6 6 6 5 5 6 6 8 8 2 5 7 6 8 8 9 10 10 10 10 10
6 7 6 6 9 8 11 8 9 7 6 5 6 4 3 5 4 4 5 4 4 3 2 3 3 3 3 5 5 9 9 8 6 2 4 9 9 9 9 9 9 9 9
10 9 5 6 7 6 6 8 8 6 4 4 6 4 8 1 3 6 10 11 10 8 10 8 2 0 1 3 5 9 7 3 7 2 1 8 4 6 7 8 8 7 10
11 10 6 3 6 8 5 7 5 6 6 3 2 2 3 1 2 4 1 10 6 3 5 8 12 6 9 2 8 8 0 3 4 4 5 6 5 1 3 6 8 8 9
10 8 6 7 5 8 5 5 4 4 4 5 4 4 1 3 1 3 1 4 5 5 5 4 7 4 5 3 1 2 6 7 3 2 7 8 4 2 3 5 7 8 9
10 8 8 9 7 6 5 5 4 3 3 4 3 4 3 4 0 1 0 5 5 4 6 8 7 9 6 1 3 3 5 6 5 3 4 10 6 5 5 6 6 8 8
10 9 10 9 7 5 5 4 3 3 5 3 4 3 4 4 3 4 0 2 6 6 7 5 8 6 6 7 5 4 5 4 6 3 2 12 9 6 6 7 8 8 10
9 11 11 10 8 8 6 5 3 4 3 3 3 2 4 5 3 5 2 2 3 5 5 5 7 7 7 7 5 3 4 4 5 8 6 6 8 2 7 3 3 8 9
10 10 10 9 10 9 7 6 5 4 3 3 4 4 5 6 2 5 2 3 1 5 7 5 6 5 4 4 5 5 5 6 6 6 5 6 8 10 6 4 9 8 10
10 11 9 9 9 11 8 6 4 4 3 3 3 3 2 4 4 3 2 3 4 3 4 5 5 6 5 5 7 4 5 4 5 5 5 4 6 8 11 10 9 11 11
11 11 10 10 9 8 7 5 5 4 4 4 4 2 3 2 2 4 3 2 4 3 4 6 5 6 6 5 5 4 3 3 5 4 4 4 4 6 8 15 16 14 13
11 12 13 12 11 8 5 6 5 5 4 5 4 2 1 1 1 3 4 4 2 4 5 6 6 5 4 4 3 4 2 4 3 5 5 5 6 5 7 8 9 6 12
12 12 12 12 10 9 8 7 6 6 5 5 4 2 4 2 2 1 3 4 4 3 5 6 6 6 5 4 5 4 5 5 6 3 1 4 5 6 6 8 7 7 7
15 13 13 13 12 10 7 6 4 3 4 4 4 2 4 4 2 3 1 3 3 5 5 5 4 5 4 4 2 6 3 4 4 4 4 3 4 5 5 6 7 7 7
13 14 13 13 12 12 10 6 5 5 5 5 5 6 4 4 4 3 3 3 4 2 4 5 6 3 3 4 4 3 2 3 5 4 4 3 5 5 6 5 6 7 7
15 15 14 13 13 12 12 9 8 5 5 4 4 1 2 4 5 5 4 4 2 1 3 4 4 2 5 5 4 3 5 7 2 6 4 4 5 5 5 5 7 7 8
12 13 13 13 12 12 13 11 9 8 5 5 4 0 3 4 5 5 5 5 4 5 4 1 3 5 4 3 3 3 1 2 1 5 3 2 3 5 5 7 7 6 8
10 10 10 11 11 11 12 12 11 9 7 6 5 4 4 4 6 5 4 4 4 3 5 5 4 5 5 3 4 3 3 1 3 2 3 3 3 3 4 5 5 3 3
Wind_Direction
210 110 263 108 104 108 112 111 113 118 118 119 116 121 118 116 115 100 94 97 102 100 99 100 103 102 106 105 102 108 108 107 106 101 102 107 109 112 118 129 148 107 110
130 118 157 123 115 111 113 112 113 117 115 117 116 107 107 110 105 110 103 98 99 98 101 96 96 106 105 108 107 96 104 113 110 114 109 104 108 114 124 116 85 108 115
130 131 143 96 125 124 120 124 123 117 120 117 116 109 95 92 99 104 106 101 98 99 101 101 102 100 101 100 98 96 104 103 107 130 150 119 110 120 105 100 108 120 122
139 120 124 114 129 132 130 126 124 123 120 119 110 107 99 88 88 93 96 102 107 95 94 95 98 104 102 99 96 97 95 101 113 176 183 119 114 119 116 117 120 117 119
153 121 99 128 127 128 127 122 124 122 122 122 118 110 100 87 76 93 90 93 93 95 97 95 96 97 104 107 91 95 100 110 142 139 77 100 112 121 123 124 127 133 147
160 139 120 130 129 125 125 126 122 119 116 106 114 101 99 89 79 83 85 90 93 91 93 95 101 100 98 95 104 99 111 127 215 117 104 91 101 122 129 129 119 114 123
167 128 137 144 134 129 132 125 123 128 111 100 101 99 95 88 83 76 80 83 88 92 93 95 91 94 90 80 78 119 129 157 104 98 106 121 108 136 126 125 127 131 132
149 142 124 132 117 128 129 128 128 116 120 119 108 101 109 94 92 86 83 85 87 88 85 85 91 93 87 77 74 135 136 177 139 105 75 86 112 135 130 129 131 136 137
142 157 146 148 127 121 115 123 125 130 132 123 110 109 93 104 109 118 98 88 83 88 94 92 86 78 78 71 79 122 139 96 80 105 135 116 132 134 131 139 139 142 143
156 163 174 171 141 157 153 139 134 140 140 134 117 113 128 155 147 135 160 109 59 68 98 82 79 57 56 68 87 132 134 137 95 134 135 92 134 133 133 141 146 151 147
181 164 196 157 139 129 139 133 148 143 137 171 166 165 215 306 118 185 74 68 19 24 2 352 312 204 232 142 98 137 173 95 129 23 20 104 114 134 149 154 146 157 161
189 170 164 192 166 148 180 151 181 152 177 161 171 198 241 26 7 317 84 128 141 77 341 341 321 305 238 213 140 149 25 59 73 161 121 118 90 67 153 161 160 158 162
184 160 172 191 223 180 155 187 174 180 180 167 206 260 53 301 306 7 72 133 140 199 160 249 267 263 287 271 69 54 137 183 142 113 126 124 86 357 308 196 174 169 168
174 180 198 189 209 211 162 206 177 199 195 213 164 236 241 260 35 336 106 167 160 163 167 203 231 233 206 343 237 149 208 131 135 156 173 155 153 264 298 212 191 177 183
176 176 205 218 188 208 200 204 216 232 214 191 213 200 286 282 31 308 322 144 162 200 187 206 210 207 213 192 202 185 196 141 149 122 167 173 179 221 280 223 205 196 193
181 190 181 210 188 205 212 212 231 231 226 247 267 270 256 280 6 305 12 20 149 156 162 197 178 196 196 168 185 192 167 151 152 155 164 172 177 151 43 27 258 217 211
191 195 190 207 193 194 195 200 214 237 201 280 287 263 264 278 288 309 352 33 24 119 166 180 169 182 191 164 169 163 188 148 167 167 176 138 186 162 141 336 284 278 226
200 186 200 204 200 181 188 187 225 224 262 285 285 289 273 261 283 302 356 3 57 135 154 159 179 154 150 145 168 173 150 168 153 177 206 208 187 162 156 214 236 263 241
190 183 198 210 216 186 178 214 222 239 232 267 292 299 101 216 265 310 91 65 71 80 129 148 163 157 165 153 143 152 141 127 181 185 194 203 194 181 171 199 210 225 227
179 192 201 198 206 207 198 219 230 234 235 246 265 295 261 129 166 299 68 81 124 117 128 153 160 166 159 133 130 140 166 150 186 190 194 194 172 194 173 179 184 194 210
197 195 201 207 208 207 207 217 216 232 224 246 256 248 251 238 125 90 82 120 109 70 89 153 151 165 156 159 186 149 161 181 184 214 314 237 171 202 165 173 173 166 191
202 208 206 211 198 204 207 221 242 259 235 273 278 284 246 245 175 150 52 100 62 115 128 140 192 157 154 163 179 184 179 174 183 201 196 190 193 192 163 188 171 182 171
216 211 213 210 211 206 216 200 199 223 240 241 226 229 193 210 190 140 153 72 134 183 143 156 169 196 135 176 278 305 232 99 177 165 179 195 170 193 171 208 192 166 189
216 213 213 216 212 205 200 199 211 233 235 208 242 351 228 199 191 168 157 137 187 297 131 181 181 184 238 164 178 231 335 350 349 148 175 194 190 211 197 190 173 186 184
220 214 212 209 215 219 199 217 195 223 206 226 224 2 253 170 217 195 173 158 163 231 152 213 179 236 177 298 241 171 213 222 240 310 48 100 189 262 190 194 200 195 185
229 217 210 205 212 211 207 207 211 203 226 228 222 248 207 183 176 197 189 186 165 182 198 204 211 206 274 313 306 317 246 233 290 283 275 178 204 194 229 237 178 181 218